RH
18 19 20 25 28 27 21 12 13 16 12 10 11 22 18 3 9 14 17 17 15 13 10 9 10 11 10 7 9 23 21 35 40 39 52 54 49 45 54 48 56 51 37 19 28
18 19 20 26 26 24 13 13 17 16 12 10 8 10 5 9 9 11 14 14 11 14 10 7 9 9 6 8 17 18 22 35 40 38 41 32 41 40 53 47 49 43 38 26 25
20 20 22 26 27 17 12 16 17 14 12 9 4 3 10 13 18 13 8 11 16 11 6 13 13 7 5 15 20 19 15 38 30 28 31 32 26 34 46 41 16 28 30 21 16
18 21 25 26 22 13 15 18 17 13 11 7 2 10 15 17 28 22 14 17 5 15 18 21 13 5 8 18 20 20 18 28 29 27 35 31 32 40 37 23 19 21 26 17 15
20 23 26 25 15 15 17 19 16 11 9 4 7 13 22 19 22 16 14 16 25 25 26 27 20 10 10 18 20 20 18 15 30 29 25 28 21 17 23 22 22 32 34 27 23
23 24 26 16 16 16 19 20 15 11 9 6 12 28 29 31 33 26 20 21 20 22 24 26 28 24 17 18 18 20 14 13 20 28 20 10 13 16 18 24 23 37 39 38 38
24 26 21 16 17 20 22 21 16 12 8 12 22 37 29 33 31 30 30 28 32 30 28 29 23 20 23 17 19 16 13 17 13 12 8 9 12 13 16 19 24 36 41 47 52
24 25 16 17 21 22 21 20 16 12 9 13 36 38 32 33 32 29 26 30 28 24 20 22 20 23 20 17 15 12 11 12 11 11 11 12 13 15 17 21 23 29 32 40 48
26 20 16 19 23 22 21 18 14 10 11 27 38 38 36 32 32 32 26 27 25 23 18 21 20 20 19 12 13 12 6 9 13 12 11 13 19 18 19 20 23 24 26 30 36
23 18 16 23 23 20 18 15 11 9 15 30 37 40 36 32 30 26 26 23 21 18 20 23 16 16 17 12 14 13 19 12 12 16 24 15 21 23 20 22 22 23 26 30 37
20 17 21 24 21 16 13 8 10 17 24 32 38 36 33 33 28 25 25 23 21 18 15 20 15 16 16 13 14 14 14 20 20 23 24 24 25 25 22 24 25 24 28 32 39
19 18 22 22 15 12 15 22 22 23 25 31 33 33 30 30 24 23 22 21 21 13 18 19 15 18 16 18 17 20 20 20 20 19 22 22 22 24 24 24 24 25 28 31 42
18 21 21 16 16 31 32 29 29 26 24 30 34 33 28 32 22 22 20 15 11 12 16 17 24 23 24 23 20 19 20 24 27 24 26 25 28 26 25 24 24 27 32 36 41
18 22 18 30 43 41 38 41 41 24 25 27 34 39 36 26 19 20 20 16 20 25 19 16 24 26 30 27 25 24 26 25 25 30 35 29 40 35 31 29 32 39 46 51 59
19 19 36 53 78 45 42 48 41 29 49 30 35 37 36 28 29 22 18 21 25 24 21 22 22 23 28 26 22 26 31 28 29 29 30 33 34 44 47 46 46 54 58 62 50
20 21 60 77 65 48 50 45 35 36 42 31 33 37 39 31 31 36 34 30 28 27 24 20 26 26 25 30 26 25 32 33 32 33 40 35 37 40 36 32 54 65 66 57 41
21 42 61 80 72 59 45 43 39 42 31 31 31 37 40 28 30 34 33 30 29 31 30 28 31 31 31 31 34 34 37 48 50 55 46 42 41 33 33 37 54 58 56 50 46
30 61 67 77 69 64 41 44 43 44 26 34 29 36 40 33 29 34 30 28 28 26 30 30 31 28 32 30 28 32 38 36 57 60 46 51 53 37 38 40 56 56 51 50 51
45 62 70 76 62 60 42 46 38 41 30 31 28 38 41 32 23 31 37 33 30 28 26 32 30 34 33 39 37 34 38 37 41 50 52 48 49 42 40 40 54 54 55 55 55
50 61 61 67 66 52 49 41 38 44 32 27 29 31 41 36 33 30 36 40 36 34 35 39 37 31 38 43 44 38 29 37 38 56 54 49 51 39 39 37 48 54 54 55 56
58 59 55 56 61 50 52 38 50 44 35 30 26 32 40 39 42 31 34 35 36 39 43 43 37 40 39 37 35 34 29 21 24 35 41 48 34 25 30 41 41 45 49 54 58
58 58 51 50 54 46 48 37 50 48 34 33 30 38 38 39 40 38 40 42 39 35 38 44 33 37 41 38 34 32 30 18 16 25 33 39 24 20 26 37 48 51 54 57 60
56 59 54 46 44 42 44 37 44 47 44 34 36 36 38 39 42 42 42 42 41 31 39 43 38 40 42 40 39 34 29 20 22 21 27 52 18 20 22 28 45 54 58 61 60
59 62 56 46 40 36 43 35 53 52 46 42 38 38 39 38 40 41 42 44 43 45 30 41 39 32 30 24 24 28 18 22 27 23 21 19 16 20 28 32 36 44 50 56 58
74 58 54 50 42 30 37 33 54 57 50 38 38 40 34 44 44 40 42 44 48 48 34 33 42 35 31 22 23 24 22 22 20 21 27 17 16 16 24 31 41 49 52 54 55
75 57 50 41 38 31 30 30 46 56 50 40 45 44 40 50 49 49 50 48 48 46 36 31 36 38 32 29 24 19 16 16 18 21 23 19 14 16 22 27 35 42 48 52 56
71 57 44 38 34 34 25 25 53 55 53 46 41 50 45 42 46 44 43 47 49 42 23 22 32 28 23 22 27 27 12 11 12 12 14 15 12 18 19 27 32 41 49 57 65
Wind_Speed
28 28 29 30 31 32 33 32 29 22 15 12 12 12 13 13 9 8 3 12 12 10 11 14 14 14 15 16 19 13 9 9 15 15 14 17 7 6 12 12 11 6 1 6 8
28 28 29 31 31 33 33 30 24 16 11 12 11 10 8 5 3 3 9 8 9 9 11 13 14 14 15 19 18 15 7 13 13 9 8 8 18 8 13 6 4 5 4 4 12
28 27 29 32 32 33 32 25 18 12 11 10 8 6 3 2 4 2 4 7 6 9 12 13 12 14 19 19 15 15 4 12 11 11 13 12 5 8 11 6 3 1 4 10 15
27 26 29 31 32 34 27 20 13 11 12 9 6 4 5 7 2 4 6 7 10 12 7 5 8 14 20 18 16 9 5 16 15 11 17 13 6 8 9 7 10 11 10 11 14
25 25 28 30 31 29 21 15 11 12 12 8 7 8 10 10 11 10 10 16 11 8 6 5 7 11 17 16 14 8 3 9 21 17 12 11 9 9 11 8 11 17 18 19 19
24 24 28 29 28 22 17 14 13 13 11 10 10 13 14 15 13 12 10 10 8 11 9 7 8 9 12 13 10 1 4 6 18 16 11 12 12 12 8 9 13 18 24 24 22
23 24 28 28 22 17 15 14 15 13 12 12 14 14 16 11 13 13 10 8 9 10 10 10 14 15 10 10 7 6 8 14 19 18 16 10 10 12 12 14 12 17 18 19 18
23 24 26 23 16 14 12 14 14 13 14 14 18 14 17 13 13 12 12 11 10 7 7 11 14 10 11 9 11 12 9 13 16 14 11 8 11 10 13 16 14 12 12 11 11
23 23 22 18 12 10 11 12 13 14 16 19 18 13 12 13 13 16 12 11 6 3 4 7 13 20 16 19 18 10 7 9 14 13 9 7 7 11 12 11 12 11 10 10 9
21 21 18 14 10 9 11 12 13 16 17 19 14 9 9 11 15 14 13 10 5 3 5 4 10 13 22 23 12 11 11 13 13 10 6 9 5 6 10 11 10 9 10 10 10
19 18 15 11 10 10 12 13 14 14 18 13 12 5 10 9 17 16 14 12 9 2 5 12 15 14 21 19 8 9 11 13 14 11 9 7 3 3 9 12 10 10 12 13 15
17 14 14 10 11 13 14 14 14 14 18 9 12 9 10 10 18 15 11 12 9 3 11 14 18 15 16 12 10 8 7 10 13 15 11 8 7 5 10 14 13 14 13 13 14
16 13 14 13 16 17 15 12 11 16 19 7 8 8 9 8 12 19 15 11 9 7 10 9 10 11 10 7 6 3 2 3 13 18 10 7 4 7 12 16 15 14 12 9 6
16 16 17 22 20 17 15 14 10 14 11 11 10 8 5 9 11 21 18 11 9 11 13 10 9 7 6 6 6 3 1 1 10 15 7 11 4 9 13 15 14 11 10 10 12
19 21 27 24 18 16 16 15 13 15 3 10 13 7 7 9 14 14 15 12 14 17 12 10 9 6 4 4 5 7 7 6 13 8 6 11 4 11 16 17 16 14 15 15 13
24 28 31 25 20 17 17 15 15 7 4 12 16 11 9 7 14 12 15 14 17 15 11 12 10 7 6 3 2 5 10 10 8 5 3 9 13 11 20 23 21 20 18 17 15
30 34 30 23 20 18 19 17 9 4 10 12 20 14 10 12 16 12 17 18 13 12 10 9 8 6 4 5 6 7 13 3 1 2 3 8 10 19 9 19 23 21 21 19 16
36 36 32 26 21 20 21 18 6 5 15 13 19 18 11 11 17 14 16 16 10 9 12 9 4 7 10 10 7 11 14 6 5 4 3 7 7 11 13 17 21 19 20 18 15
41 37 34 27 23 21 22 18 7 6 13 17 18 19 12 10 11 16 15 12 10 9 7 9 6 8 8 12 9 7 11 14 4 2 2 6 9 11 13 16 26 27 24 19 16
41 37 35 26 27 22 22 19 9 6 13 16 16 17 13 13 8 14 14 12 11 11 11 7 5 9 8 11 11 7 8 5 6 4 3 4 8 13 9 14 26 31 28 22 18
42 37 35 27 27 27 24 25 8 7 13 16 18 17 13 14 10 13 9 6 13 12 12 11 7 8 9 9 11 10 8 5 4 3 3 2 5 2 5 10 13 18 22 21 19
45 39 36 32 29 30 27 25 9 8 15 18 18 9 11 15 13 11 12 7 6 12 14 14 8 8 12 8 10 10 8 7 4 4 6 3 8 4 2 11 17 18 17 20 22
46 38 37 34 33 30 29 27 14 10 11 16 16 12 11 11 16 16 14 11 9 9 11 14 9 7 5 10 13 13 13 11 8 7 7 3 4 2 7 7 15 23 25 25 26
44 33 38 35 33 33 30 28 16 10 10 11 11 14 14 10 13 13 17 14 11 11 14 15 15 12 16 7 10 17 17 14 12 7 9 17 20 16 15 12 9 17 20 24 28
46 38 43 39 36 32 30 26 18 11 9 11 11 10 12 10 15 14 14 12 13 13 15 16 16 17 14 11 9 10 11 13 16 17 15 19 22 16 16 14 12 14 20 24 26
43 40 36 25 35 31 31 27 23 12 10 11 9 11 13 9 9 8 7 9 11 13 15 16 12 16 15 16 13 15 15 16 19 21 23 24 26 17 16 16 16 15 16 18 21
42 36 35 37 23 34 34 32 20 15 11 8 10 10 12 12 11 10 10 10 10 12 12 15 17 13 9 14 16 15 22 22 22 22 22 24 19 19 20 17 15 16 16 15 18
Wind_Direction
287 291 295 297 299 302 304 306 305 296 279 263 260 272 287 295 294 287 230 215 223 225 216 212 207 201 196 187 178 174 183 179 157 140 128 124 151 196 241 238 182 176 165 56 165
285 290 294 296 300 302 304 306 302 287 265 256 260 272 290 298 306 243 219 225 216 209 196 194 192 186 182 180 183 186 184 165 161 220 214 107 202 200 228 237 208 246 233 114 151
285 290 292 295 300 302 304 302 292 274 253 248 250 256 244 162 114 108 176 159 187 176 169 169 183 181 177 175 179 182 148 151 146 195 224 218 217 218 215 162 100 30 182 151 147
283 288 292 296 300 302 300 294 276 248 238 232 233 204 161 138 120 132 140 146 136 131 131 161 187 183 173 178 176 174 182 177 171 166 203 192 186 157 160 127 104 88 114 132 147
282 288 292 296 300 299 294 283 253 234 226 213 196 173 149 129 112 109 127 129 121 119 124 128 135 168 173 181 185 216 280 184 173 192 191 157 134 134 132 141 98 102 106 114 120
281 287 291 296 297 292 283 262 234 228 213 198 181 161 151 135 125 122 133 146 152 146 165 152 137 126 175 191 194 50 169 116 183 199 165 151 129 128 132 151 113 118 113 114 115
281 288 292 297 291 280 267 246 225 217 198 187 171 167 164 145 139 134 139 144 146 120 117 146 133 161 185 170 184 175 151 130 146 157 146 141 134 139 126 123 138 129 129 121 118
280 288 293 288 278 266 255 236 219 201 186 177 169 178 163 160 148 148 141 142 149 109 103 128 157 158 167 177 179 174 184 148 156 152 152 154 161 151 142 136 153 150 141 140 139
279 287 288 273 261 249 235 221 203 190 179 171 184 172 170 182 152 154 155 154 143 65 111 141 171 186 180 176 167 171 143 168 162 173 192 184 136 162 155 151 172 177 180 179 181
277 284 273 255 238 223 211 198 187 182 175 180 178 175 191 191 169 160 170 166 175 298 85 127 160 188 188 180 168 176 154 147 163 177 159 186 175 181 182 183 196 209 217 222 219
273 270 253 233 217 199 189 179 178 175 170 168 179 161 186 196 181 168 185 188 189 191 174 162 165 172 165 181 200 213 190 173 169 185 192 198 224 219 197 199 206 231 243 248 248
263 248 231 203 192 176 167 165 171 168 167 160 176 175 179 194 197 174 190 198 199 231 159 138 147 149 171 182 191 182 189 213 204 202 200 199 205 219 212 210 216 233 251 258 259
243 221 205 175 161 162 164 162 165 170 169 165 169 175 175 195 201 191 201 205 217 210 168 158 143 164 150 150 168 147 292 195 194 181 185 194 193 208 214 213 222 234 240 239 222
220 201 175 155 162 167 158 144 148 166 166 185 166 156 169 162 174 188 192 202 188 179 165 157 158 155 138 174 140 161 224 246 174 166 158 192 196 215 208 214 223 225 201 182 174
199 184 159 158 167 161 159 142 146 162 109 197 173 162 166 159 150 167 204 198 189 178 172 163 167 175 188 171 140 159 173 174 164 191 176 206 213 212 208 212 213 198 186 177 178
185 175 161 163 162 166 167 152 156 172 246 169 181 175 170 194 160 158 175 184 178 180 173 179 181 190 211 168 180 156 157 171 195 193 224 215 216 233 224 232 209 192 184 185 189
179 173 164 171 166 177 172 169 175 214 173 178 186 180 185 172 171 166 166 164 162 155 154 159 186 201 218 209 181 188 171 132 187 194 228 217 225 237 232 234 219 201 195 202 201
177 173 168 171 172 188 179 182 205 209 178 179 185 181 189 174 176 171 172 177 177 180 176 186 186 221 219 218 214 209 202 200 197 198 211 212 232 237 230 230 213 206 211 214 214
178 176 175 180 179 194 188 194 209 192 179 177 174 184 189 191 185 186 187 184 188 201 194 183 179 201 208 208 209 211 214 228 230 163 223 220 250 238 226 223 201 205 216 222 231
180 181 185 186 190 196 197 200 209 176 182 181 182 192 194 194 192 192 189 205 211 212 195 195 163 195 200 204 213 225 206 178 200 155 249 260 263 240 216 216 201 206 221 231 238
181 183 186 189 196 201 206 200 196 181 188 184 192 190 196 195 209 199 200 208 212 212 218 225 217 189 195 202 214 193 194 196 183 196 176 290 260 285 225 213 222 223 232 239 247
183 184 187 193 193 204 208 202 196 160 179 186 198 193 204 212 214 212 212 219 216 222 223 221 219 183 197 205 203 209 219 214 210 212 214 224 274 274 230 215 222 223 236 245 246
184 184 191 198 200 204 206 205 201 162 167 195 209 220 225 224 216 216 214 224 240 229 217 215 210 166 191 224 224 226 227 233 242 252 234 193 258 303 316 261 237 229 237 243 247
184 183 194 200 207 209 205 203 199 173 168 185 203 210 225 242 230 214 212 222 228 229 220 213 218 217 209 215 210 222 228 233 238 247 253 254 274 287 297 297 260 234 239 246 255
189 191 198 200 204 206 205 208 200 178 181 203 211 215 219 234 210 209 207 222 230 231 222 216 226 228 234 227 221 223 230 241 251 262 258 285 284 295 296 294 282 259 252 258 265
191 194 196 203 208 204 204 207 204 187 199 214 217 210 205 221 210 205 218 235 237 228 220 220 226 233 236 238 244 243 244 251 257 262 268 278 287 299 292 280 275 276 270 273 274
193 195 205 207 203 205 206 202 195 189 199 205 204 208 216 231 246 254 251 240 224 223 224 221 225 230 233 240 246 256 257 261 267 274 281 277 298 291 291 278 276 278 279 278 274